Weather History for Kirkwall, United Kingdom

Change the Weather History Date:

Sunday, November 17, 2013

  Actual Average (EGPC) Record (EGPC)
Temperature  
Mean Temperature 42 °F -  
Max Temperature 46 °F 44 °F 53 °F (2001)
Min Temperature 38 °F 37 °F 28 °F (1998)
Degree Days  
Heating Degree Days 23    
Moisture  
Dew Point 38 °F    
Average Humidity 79    
Maximum Humidity 87    
Minimum Humidity 61    
Precipitation  
Precipitation 0.01 in - - ()
Sea Level Pressure  
Sea Level Pressure 30.11 in    
Wind  
Wind Speed 12 mph ()    
Max Wind Speed 18 mph    
Max Gust Speed -    
Visibility 6.6 miles    
Events Rain    
Averages and records for this station are not official NWS values.
T = Trace of Precipitation, MM = Missing Value Source: Averaged Metar Reports

Daily Weather History Graph

Daily Weather History Graph

Search for Another Location

Airport:

Trip Planner

Search our weather history database for the weather conditions in past years. The results will help you decide how hot, cold, wet, or windy it might be!

Date:

Astronomy

Nov. 17, 2013 Rise Set
Actual Time 8:08 AM GMT 3:44 PM GMT
Civil Twilight 7:20 AM GMT 4:31 PM GMT
Nautical Twilight 6:30 AM GMT 5:22 PM GMT
Astronomical Twilight 5:42 AM GMT 6:09 PM GMT
Moon 3:53 PM GMT (11/17) 7:43 AM GMT (11/17)
Length of Visible Light 9h 11m
Length of Day
7h 35m
Full, 100% of the Moon is Illuminated
Nov 17
Full
Nov 17
Full
Nov 25
Last Quarter
Dec 3
New
Dec 9
First Quarter

Hourly Weather History & Observations

Time (GMT) Temp. Windchill Dew Point Humidity Pressure Visibility Wind Dir Wind Speed Gust Speed Precip Events Conditions
12:00 AM 44 °F - 35 °F 61% 30.20 in 16 mi WNW 18.4 mph - - Rain Rain
12:20 AM 44.6 °F 38.4 °F 37.4 °F 76% 30.21 in 6.2 mi West 12.7 mph - N/A   Partly Cloudy
12:50 AM 42.8 °F 37.0 °F 39.2 °F 87% 30.21 in 6.2 mi West 10.4 mph - N/A   Partly Cloudy
1:20 AM 44.6 °F 38.4 °F 39.2 °F 81% 30.21 in 6.2 mi West 12.7 mph - N/A   Partly Cloudy
1:50 AM 42.8 °F 35.8 °F 37.4 °F 81% 30.21 in 6.2 mi West 13.8 mph - N/A   Unknown
2:20 AM 44.6 °F 38.1 °F 37.4 °F 76% 30.21 in 6.2 mi West 13.8 mph - N/A   Scattered Clouds
2:50 AM 42.8 °F 36.2 °F 37.4 °F 81% 30.21 in 6.2 mi West 12.7 mph - N/A   Partly Cloudy
3:00 AM 42 °F - 36 °F 73% 30.22 in 14 mi West 12.7 mph - - Rain Rain
3:20 AM 42.8 °F 35.8 °F 37.4 °F 81% 30.21 in 6.2 mi West 13.8 mph - N/A   Unknown
3:50 AM 41.0 °F 35.8 °F 37.4 °F 87% 30.21 in 6.2 mi West 8.1 mph - N/A   Unknown
4:20 AM 41.0 °F 39.0 °F 35.6 °F 81% 30.21 in 6.2 mi Variable 3.5 mph - N/A   Partly Cloudy
4:50 AM 42.8 °F 38.0 °F 37.4 °F 81% 30.21 in 6.2 mi West 8.1 mph - N/A   Unknown
5:20 AM 41.0 °F 35.2 °F 35.6 °F 81% 30.21 in 6.2 mi West 9.2 mph - N/A   Unknown
5:50 AM 39.2 °F 33.6 °F 35.6 °F 87% 30.21 in 6.2 mi WSW 8.1 mph - N/A   Unknown
6:00 AM 39 °F - 35 °F 80% 30.21 in 28 mi West 10.4 mph - -  
6:20 AM 42.8 °F 38.0 °F 37.4 °F 81% 30.21 in 6.2 mi SW 8.1 mph - N/A   Partly Cloudy
6:50 AM 44.6 °F 39.7 °F 39.2 °F 81% 30.21 in 6.2 mi WSW 9.2 mph - N/A   Mostly Cloudy
7:20 AM 44.6 °F 38.4 °F 39.2 °F 81% 30.18 in 6.2 mi SSW 12.7 mph - N/A   Scattered Clouds
7:50 AM 44.6 °F 38.8 °F 39.2 °F 81% 30.18 in 6.2 mi SSW 11.5 mph - N/A   Scattered Clouds
8:20 AM 44.6 °F 39.7 °F 41.0 °F 87% 30.21 in 6.2 mi SW 9.2 mph - N/A   Partly Cloudy
8:50 AM 44.6 °F 38.8 °F 39.2 °F 81% 30.18 in 6.2 mi SSW 11.5 mph - N/A   Scattered Clouds
9:00 AM 42 °F - 39 °F 83% 30.20 in 22 mi SW 17.3 mph - - Rain Rain
9:20 AM 44.6 °F 38.4 °F 41.0 °F 87% 30.18 in 6.2 mi SSW 12.7 mph - N/A   Partly Cloudy
9:50 AM 44.6 °F 37.8 °F 39.2 °F 81% 30.18 in 6.2 mi SSW 15.0 mph - N/A   Partly Cloudy
10:20 AM 44.6 °F 38.1 °F 39.2 °F 81% 30.18 in 6.2 mi SSW 13.8 mph - N/A   Partly Cloudy
10:50 AM 44.6 °F 37.4 °F 39.2 °F 81% 30.15 in 6.2 mi SSW 16.1 mph - N/A   Partly Cloudy
11:20 AM 46.4 °F 40.1 °F 39.2 °F 76% 30.15 in 6.2 mi SSW 15.0 mph - N/A   Partly Cloudy
11:50 AM 46.4 °F 40.1 °F 39.2 °F 76% 30.12 in 6.2 mi SSW 15.0 mph - N/A   Partly Cloudy
12:00 PM 45 °F - 38 °F 68% 30.14 in 37 mi SW 16.1 mph - -   Scattered Clouds
12:20 PM 46.4 °F 39.8 °F 39.2 °F 76% 30.12 in 6.2 mi SSW 16.1 mph - N/A   Scattered Clouds
12:50 PM 46.4 °F 39.8 °F 39.2 °F 76% 30.09 in 6.2 mi SSW 16.1 mph - N/A   Partly Cloudy
1:20 PM 48.2 °F - 39.2 °F 71% 30.06 in 6.2 mi SSW 13.8 mph - N/A   Partly Cloudy
1:50 PM 46.4 °F 40.4 °F 39.2 °F 76% 30.06 in 6.2 mi South 13.8 mph - N/A   Scattered Clouds
2:20 PM 46.4 °F 40.1 °F 39.2 °F 76% 30.04 in 6.2 mi South 15.0 mph - N/A   Scattered Clouds
2:50 PM 46.4 °F 40.4 °F 39.2 °F 76% 30.01 in 6.2 mi South 13.8 mph - N/A   Scattered Clouds
3:00 PM 45 °F - 37 °F 66% 30.02 in 47 mi SSW 16.1 mph - -   Partly Cloudy
3:20 PM 44.6 °F 37.8 °F 39.2 °F 81% 30.01 in 6.2 mi South 15.0 mph - N/A   Scattered Clouds
3:50 PM 44.6 °F 38.1 °F 39.2 °F 81% 29.98 in 6.2 mi SSW 13.8 mph - N/A   Scattered Clouds
4:20 PM 44.6 °F 38.4 °F 39.2 °F 81% 29.98 in 6.2 mi SSW 12.7 mph - N/A   Scattered Clouds
4:50 PM 44.6 °F 38.1 °F 39.2 °F 81% 29.95 in 6.2 mi South 13.8 mph - N/A   Scattered Clouds
5:20 PM 44.6 °F 38.1 °F 39.2 °F 81% 29.95 in 6.2 mi South 13.8 mph - N/A   Partly Cloudy
5:50 PM 44.6 °F 38.1 °F 39.2 °F 81% 29.95 in 6.2 mi SSW 13.8 mph - N/A   Scattered Clouds
6:00 PM 44 °F - 39 °F 76% 29.94 in 40 mi SSW 16.1 mph - -   Partly Cloudy
6:20 PM 44.6 °F 37.2 °F 39.2 °F 81% 29.92 in 6.2 mi SSW 17.3 mph - N/A   Mostly Cloudy
6:50 PM 44.6 °F 37.4 °F 39.2 °F 81% 29.92 in 6.2 mi SSW 16.1 mph - N/A   Mostly Cloudy
7:20 PM 44.6 °F 37.8 °F 39.2 °F 81% 29.89 in 6.2 mi South 15.0 mph - N/A   Mostly Cloudy
7:50 PM 44.6 °F 37.2 °F 41.0 °F 87% 29.89 in 6.2 mi SSW 17.3 mph - N/A   Scattered Clouds
9:00 PM 44 °F - 40 °F 79% 29.85 in 44 mi SSW 17.3 mph - -   Scattered Clouds